[[{"header":{"parameterUnit":"m.s-1","parameterCategory":1,"la1":30.2991,"la2":30.254,"lo1":-89.0895,"lo2":-89.0444,"dy":0.0017,"dx":0.0017,"nx":28,"ny":28,"refTime":"2025-12-13T03:00:00:Z","depth":0,"parameterNumber":2,"parameterNumberName":"U-component_of_WINDS"},"data":[0,0,0,0,0,0,0,0,0,0,0,0,0,0,0,0,0,0,0,0,0,0,0,0,0,0,0,0,0,0,0,0,0,0,0,0,0,0,0,0,0,0,0,0,0,0,0,0,0,0,0,0,0,0,0,0,0,0,-0.0858,-0.0857,0,-0.0796,-0.0795,-0.0794,-0.0788,-0.0789,-0.0789,-0.079,-0.0721,-0.0719,-0.0717,0,0,0,0,0,0,0,0,0,0,0,0,0,-0.0959,-0.0957,-0.0858,-0.0857,-0.0856,-0.0796,-0.0795,-0.0794,-0.0788,-0.0789,-0.079,-0.079,-0.0722,-0.0719,-0.0716,0,0,0,0,0,0,0,0,0,0,0,0,0,-0.0907,-0.0956,-0.0858,-0.0846,-0.0844,-0.0796,-0.0795,-0.0794,-0.0788,-0.0789,-0.079,-0.0791,-0.0723,-0.072,-0.0716,-0.0674,0,0,-0.0705,-0.0703,0,0,0,0,0,0,0,0,-0.091,-0.0904,-0.0849,-0.0847,-0.0845,-0.0801,-0.0805,-0.0753,-0.0788,-0.0809,-0.079,-0.0791,-0.0747,-0.0741,-0.0727,-0.0671,-0.0668,-0.0704,-0.0702,-0.0701,-0.07,0,0,0,0,0,0,0,-0.0914,-0.0906,-0.0833,-0.0848,-0.0845,-0.084,-0.0833,-0.0795,-0.0773,-0.0807,-0.0807,-0.08,-0.0746,-0.0731,-0.0726,-0.0667,-0.0705,-0.0701,-0.0699,-0.0698,-0.056,-0.0559,0,0,0,0,0,0,-0.0921,-0.0909,-0.0835,-0.0831,-0.0881,-0.0837,-0.083,-0.0814,-0.0773,-0.0768,-0.0799,-0.08,-0.0736,-0.073,-0.0723,-0.0664,-0.0701,-0.0697,-0.0695,-0.0562,-0.056,-0.0558,0,0,0,0,0,0,-0.0923,-0.0914,-0.0838,-0.087,-0.086,-0.0834,-0.0816,-0.0812,-0.0797,-0.0767,-0.0762,-0.0789,-0.0737,-0.0728,-0.0684,-0.0662,-0.0696,-0.0692,-0.0563,-0.0561,-0.0559,-0.055,0,0,0,0,0,0,-0.0926,-0.0915,-0.0903,-0.087,-0.0858,-0.0803,-0.0815,-0.081,-0.0791,-0.0792,-0.0756,-0.0751,-0.0737,-0.0689,-0.068,-0.0657,-0.0689,-0.0565,-0.0562,-0.056,-0.0552,-0.0548,-0.0544,0,0,0,0,0,-0.093,-0.0904,-0.0902,-0.0893,-0.0842,-0.0802,-0.0795,-0.0781,-0.079,-0.0774,-0.0753,-0.0752,-0.0666,-0.0685,-0.0675,-0.065,-0.0566,-0.0563,-0.056,-0.0554,-0.0548,-0.0544,0,0,0,0,0,0,-0.0936,-0.09,-0.0898,-0.0861,-0.0834,-0.0802,-0.0782,-0.0778,-0.0748,-0.0749,-0.0731,-0.0722,-0.0677,-0.0659,-0.0681,-0.0601,-0.0616,-0.0611,-0.0615,-0.061,-0.0606,-0.061,-0.0686,0,0,0,0,0,-0.0932,-0.0906,-0.0875,-0.0845,-0.0832,-0.0809,-0.0791,-0.0782,-0.0753,-0.0742,-0.0718,-0.0688,-0.0652,-0.063,-0.0597,-0.0549,-0.0536,-0.0526,-0.0522,-0.0518,-0.0513,-0.0476,-0.0469,-0.0547,-0.0547,-0.0547,0,0,-0.0926,-0.0903,-0.0888,-0.0846,-0.0824,-0.0792,-0.08,-0.0769,-0.0742,-0.0737,-0.0692,-0.0672,-0.0636,-0.0587,-0.0565,-0.0571,-0.0488,-0.0514,-0.0512,-0.0508,-0.0472,-0.0464,-0.0458,-0.0545,-0.0545,-0.0546,0,0,-0.0898,-0.0881,-0.085,-0.0827,-0.0793,-0.0776,-0.0768,-0.0734,-0.072,-0.0675,-0.0667,-0.0633,-0.0577,-0.0548,-0.0527,-0.0476,-0.047,-0.0465,-0.0444,-0.0407,-0.0401,-0.0395,-0.037,-0.0362,-0.046,-0.046,-0.046,0,-0.0894,-0.085,-0.0835,-0.0801,-0.0779,-0.077,-0.0734,-0.0712,-0.0669,-0.0651,-0.0659,-0.058,-0.0556,-0.0495,-0.0482,-0.0467,-0.0451,-0.047,-0.0404,-0.0398,-0.0392,-0.0367,-0.0359,-0.046,-0.046,-0.046,-0.046,0,-0.0843,-0.081,-0.0789,-0.0746,-0.0721,-0.0687,-0.0662,-0.0637,-0.0627,-0.0607,-0.0555,-0.0525,-0.0481,-0.0466,-0.0458,-0.04,-0.0404,-0.0408,-0.0422,-0.0384,-0.036,-0.0351,-0.0458,-0.0459,-0.0459,-0.0459,0,0,-0.0823,-0.0765,-0.0757,-0.0733,-0.0691,-0.0663,-0.0624,-0.0581,-0.0557,-0.0524,-0.0486,-0.0433,-0.0433,-0.0408,-0.0394,-0.0363,-0.0314,-0.0369,-0.0368,-0.0355,-0.0239,-0.0234,-0.0224,-0.031,-0.0308,-0.0307,-0.0239,0,-0.0786,-0.072,-0.0701,-0.0642,-0.0607,-0.0593,-0.0557,-0.0523,-0.0501,-0.0464,-0.0438,-0.0398,-0.0405,-0.0388,-0.0356,-0.0327,-0.029,-0.0332,-0.0268,-0.0266,-0.0275,-0.0213,-0.021,-0.0148,-0.0231,-0.023,-0.0229,0,-0.0738,-0.0702,-0.064,-0.0592,-0.0577,-0.0546,-0.0499,-0.0466,-0.0423,-0.0408,-0.0375,-0.0361,-0.0312,-0.0328,-0.0255,-0.0284,-0.0255,-0.0236,-0.0232,-0.0224,-0.0244,-0.0198,-0.0129,-0.0118,-0.0215,-0.0216,-0.0217,0,-0.0723,-0.0659,-0.0611,-0.0591,-0.0537,-0.0513,-0.0489,-0.0447,-0.0419,-0.0376,-0.0355,-0.0307,-0.028,-0.024,-0.021,-0.0226,-0.0136,-0.0153,-0.0116,-0.0116,-0.0098,-0.0099,-0.002,-0.0086,-0.0086,-0.0086,-0.0087,0,-0.0684,-0.0645,-0.0602,-0.0573,-0.0525,-0.0499,-0.0451,-0.0425,-0.0386,-0.0345,-0.0329,-0.0291,-0.0256,-0.021,-0.0187,-0.0124,-0.0114,-0.0095,-0.0088,-0.0095,-0.0096,-0.0074,-0.0076,-0.0084,-0.0084,-0.0085,-0.0085,0,-0.0661,-0.0632,-0.0577,-0.0527,-0.0512,-0.0479,-0.0433,-0.0399,-0.0372,-0.0321,-0.0307,-0.0264,-0.0208,-0.0174,-0.0105,-0.0088,-0.0017,-0.0014,-0.0031,-0.0028,0.0009,0.0007,0.0108,0.0127,0.0043,0.0044,0.0045,0,-0.0637,-0.0606,-0.055,-0.0522,-0.0497,-0.0453,-0.0422,-0.0391,-0.0358,-0.0301,-0.0272,-0.0215,-0.0168,-0.0078,-0.0037,0.002,0.0027,0.0059,0.0035,0.0032,0.0036,0.0035,0.0042,0.0063,0.0064,0.0064,0.0065,0,-0.0596,-0.058,-0.0539,-0.0487,-0.045,-0.0409,-0.0367,-0.0344,-0.0304,-0.0267,-0.0209,-0.0172,-0.0096,-0.0036,0.0026,0.0058,0.0072,0.0073,0.0086,0.008,0.0072,0.0084,-0.0016,0.007,0.0069,0.0069,0.0069,0.0068,-0.0569,-0.0537,-0.049,-0.044,-0.0404,-0.0362,-0.0325,-0.0291,-0.0243,-0.018,-0.0163,-0.01,-0.0045,0.004,0.0075,0.013,0.0125,0.0141,0.0146,0.0151,0.0156,0.0062,0.014,0.014,0.014,0.014,0.014,0,-0.0523,-0.0489,-0.0443,-0.0383,-0.034,-0.0332,-0.0281,-0.0245,-0.0191,-0.0142,-0.0094,-0.002,0.0041,0.009,0.0155,0.0191,0.02,0.0207,0.0207,0.0216,0.0152,0.0137,0.02,0.02,0.02,0.02,0.02,0.02,-0.0494,-0.0436,-0.0413,-0.0333,-0.0298,-0.0237,-0.0208,-0.0165,-0.0125,-0.0045,0.0006,0.0038,0.0091,0.0162,0.0223,0.0237,0.0263,0.027,0.0286,0.0225,0.0219,0.0213,0.02,0.0274,0.0274,0.0347,0.0348,0.0348]},{"header":{"parameterUnit":"m.s-1","parameterCategory":1,"la1":30.2991,"la2":30.254,"lo1":-89.0895,"lo2":-89.0444,"dy":0.0017,"dx":0.0017,"nx":28,"ny":28,"refTime":"2025-12-13T03:00:00:Z","depth":0,"parameterNumber":3,"parameterNumberName":"V-component_of_WINDS"},"data":[0,0,0,0,0,0,0,0,0,0,0,0,0,0,0,0,0,0,0,0,0,0,0,0,0,0,0,0,0,0,0,0,0,0,0,0,0,0,0,0,0,0,0,0,0,0,0,0,0,0,0,0,0,0,0,0,0,0,-10.4436,-10.4436,0,-10.4493,-10.4493,-10.4494,-10.4376,-10.4372,-10.4369,-10.4365,-10.442,-10.4425,-10.443,0,0,0,0,0,0,0,0,0,0,0,0,0,-10.422,-10.4224,-10.4435,-10.4436,-10.4437,-10.4492,-10.4493,-10.4494,-10.4377,-10.4372,-10.4368,-10.4363,-10.4418,-10.4424,-10.443,0,0,0,0,0,0,0,0,0,0,0,0,0,-10.4299,-10.4226,-10.4435,-10.4385,-10.4381,-10.4492,-10.4493,-10.4494,-10.4378,-10.4372,-10.4366,-10.4361,-10.4416,-10.4424,-10.4431,-10.4593,0,0,-10.4454,-10.4458,0,0,0,0,0,0,0,0,-10.4294,-10.4307,-10.4392,-10.4389,-10.4385,-10.4421,-10.4437,-10.4527,-10.4379,-10.4379,-10.4365,-10.4358,-10.4425,-10.4431,-10.4455,-10.4595,-10.4597,-10.4455,-10.446,-10.4463,-10.4465,0,0,0,0,0,0,0,-10.4289,-10.4304,-10.4458,-10.4393,-10.4389,-10.4358,-10.4363,-10.4454,-10.4433,-10.4379,-10.437,-10.4379,-10.4422,-10.4448,-10.4455,-10.4598,-10.4455,-10.4461,-10.4466,-10.4469,-10.4869,-10.4875,0,0,0,0,0,0,-10.4291,-10.43,-10.4456,-10.446,-10.4325,-10.4367,-10.4372,-10.4415,-10.4432,-10.4429,-10.4384,-10.4373,-10.4438,-10.4446,-10.4457,-10.4642,-10.4463,-10.447,-10.4474,-10.4863,-10.487,-10.4877,0,0,0,0,0,0,-10.4286,-10.4306,-10.4454,-10.4377,-10.4394,-10.4376,-10.4426,-10.442,-10.4445,-10.4436,-10.4431,-10.4414,-10.4433,-10.4446,-10.4559,-10.4643,-10.4473,-10.448,-10.4856,-10.4865,-10.4874,-10.5018,0,0,0,0,0,0,-10.4281,-10.4305,-10.4367,-10.438,-10.4399,-10.4557,-10.4431,-10.4425,-10.4459,-10.4446,-10.4463,-10.446,-10.443,-10.4548,-10.4566,-10.465,-10.4486,-10.4848,-10.486,-10.4871,-10.5006,-10.5031,-10.5053,0,0,0,0,0,-10.4273,-10.4406,-10.4371,-10.4391,-10.4477,-10.4562,-10.4573,-10.4536,-10.4466,-10.4527,-10.4521,-10.446,-10.4632,-10.4561,-10.458,-10.4668,-10.4842,-10.4857,-10.487,-10.4995,-10.5026,-10.5053,0,0,0,0,0,0,-10.4404,-10.4407,-10.4368,-10.451,-10.4537,-10.4542,-10.4618,-10.457,-10.4617,-10.4602,-10.4554,-10.4558,-10.468,-10.4685,-10.4606,-10.4822,-10.4725,-10.4743,-10.4814,-10.4843,-10.4866,-10.4861,-10.4492,0,0,0,0,0,-10.4449,-10.452,-10.4518,-10.4643,-10.4659,-10.4637,-10.4673,-10.4642,-10.4667,-10.4678,-10.468,-10.4706,-10.4764,-10.4805,-10.4859,-10.5007,-10.5007,-10.5077,-10.51,-10.512,-10.5135,-10.5209,-10.5239,-10.4922,-10.4922,-10.4922,0,0,-10.4543,-10.4554,-10.4601,-10.4669,-10.4687,-10.4758,-10.4647,-10.4729,-10.478,-10.469,-10.4795,-10.4798,-10.4823,-10.4954,-10.5011,-10.4962,-10.5223,-10.5137,-10.5153,-10.5157,-10.5226,-10.5256,-10.5283,-10.4931,-10.493,-10.4928,0,0,-10.475,-10.4768,-10.4871,-10.489,-10.4917,-10.4902,-10.4927,-10.494,-10.4937,-10.5043,-10.4975,-10.5036,-10.514,-10.516,-10.5184,-10.5396,-10.534,-10.5415,-10.5537,-10.561,-10.5635,-10.5657,-10.5728,-10.5755,-10.5431,-10.5432,-10.5432,0,-10.4863,-10.497,-10.493,-10.5015,-10.5045,-10.4967,-10.5069,-10.509,-10.5134,-10.5155,-10.5101,-10.5227,-10.524,-10.5371,-10.5422,-10.5446,-10.547,-10.5411,-10.5635,-10.5656,-10.5676,-10.5743,-10.5771,-10.544,-10.5439,-10.5438,-10.5438,0,-10.5105,-10.518,-10.526,-10.5304,-10.5343,-10.5437,-10.5409,-10.5453,-10.5419,-10.5408,-10.5515,-10.5526,-10.558,-10.561,-10.5577,-10.5736,-10.5704,-10.5643,-10.5543,-10.5715,-10.5778,-10.5804,-10.5453,-10.545,-10.5447,-10.5445,0,0,-10.5395,-10.5414,-10.5444,-10.5461,-10.5484,-10.554,-10.563,-10.5682,-10.5719,-10.5752,-10.5823,-10.5912,-10.5855,-10.5882,-10.5851,-10.5916,-10.6078,-10.5846,-10.5846,-10.5885,-10.6248,-10.629,-10.6321,-10.6042,-10.6047,-10.6051,-10.6244,0,-10.5597,-10.575,-10.5715,-10.5865,-10.5931,-10.5857,-10.5934,-10.5955,-10.5948,-10.6001,-10.5992,-10.6054,-10.5977,-10.5992,-10.6053,-10.6045,-10.6149,-10.6031,-10.6104,-10.6107,-10.6095,-10.6354,-10.64,-10.6581,-10.6269,-10.6273,-10.6276,0,-10.5852,-10.5893,-10.605,-10.6059,-10.6086,-10.6156,-10.6198,-10.6252,-10.6274,-10.6263,-10.6293,-10.6249,-10.6334,-10.6237,-10.6351,-10.6272,-10.63,-10.63,-10.6306,-10.6308,-10.6199,-10.6359,-10.6639,-10.6664,-10.6315,-10.6312,-10.6309,0,-10.6042,-10.6138,-10.6242,-10.626,-10.6274,-10.6324,-10.6333,-10.6349,-10.6382,-10.642,-10.6439,-10.6488,-10.6513,-10.655,-10.6518,-10.6451,-10.6636,-10.6538,-10.6627,-10.6628,-10.6666,-10.6663,-10.695,-10.6692,-10.6692,-10.6691,-10.6691,0,-10.6269,-10.6366,-10.6327,-10.6391,-10.6497,-10.6455,-10.6561,-10.656,-10.6575,-10.6636,-10.6576,-10.6634,-10.6591,-10.6645,-10.6622,-10.6717,-10.6731,-10.6722,-10.6713,-10.6725,-10.6725,-10.6739,-10.6724,-10.6698,-10.6697,-10.6695,-10.6694,0,-10.6498,-10.6476,-10.6584,-10.6589,-10.6592,-10.6669,-10.6672,-10.673,-10.6718,-10.6795,-10.6811,-10.6791,-10.6851,-10.6825,-10.6888,-10.6872,-10.6993,-10.6971,-10.6986,-10.6978,-10.7067,-10.7057,-10.7369,-10.7406,-10.7129,-10.7132,-10.7134,0,-10.6641,-10.6714,-10.6726,-10.6762,-10.6775,-10.6835,-10.6867,-10.6829,-10.6865,-10.6893,-10.6947,-10.7002,-10.7043,-10.7142,-10.7132,-10.718,-10.7155,-10.7261,-10.7161,-10.7169,-10.715,-10.7144,-10.7149,-10.7279,-10.7283,-10.7285,-10.7288,0,-10.6897,-10.6882,-10.6931,-10.6977,-10.7017,-10.705,-10.7079,-10.7112,-10.7074,-10.7117,-10.7177,-10.721,-10.7273,-10.7327,-10.7368,-10.7375,-10.7324,-10.732,-10.7342,-10.7351,-10.7355,-10.7349,-10.7035,-10.7311,-10.7309,-10.7307,-10.7306,-10.7305,-10.7085,-10.7144,-10.716,-10.7216,-10.7233,-10.7261,-10.7314,-10.7308,-10.7357,-10.7406,-10.7381,-10.745,-10.7466,-10.7516,-10.753,-10.7582,-10.7539,-10.7573,-10.7581,-10.7588,-10.7598,-10.7351,-10.759,-10.7589,-10.7588,-10.7588,-10.7587,0,-10.7333,-10.7339,-10.7391,-10.7432,-10.7475,-10.7425,-10.7453,-10.7492,-10.7553,-10.7574,-10.7615,-10.7683,-10.7734,-10.7728,-10.7774,-10.7817,-10.7795,-10.783,-10.7824,-10.7825,-10.7635,-10.7609,-10.7847,-10.7847,-10.7847,-10.7847,-10.7847,-10.7847,-10.7467,-10.7563,-10.755,-10.7652,-10.7658,-10.7725,-10.7744,-10.7768,-10.7783,-10.7861,-10.7903,-10.7899,-10.7908,-10.7954,-10.7998,-10.7995,-10.8013,-10.8056,-10.8044,-10.7865,-10.7839,-10.7815,-10.7789,-10.8061,-10.8062,-10.8228,-10.823,-10.8231]}]]